Grenoble, France

11:47 AM CET on February 22, 2017 (GMT +0100)
Saint Geoirs

Weather History for LFLS - December, 2012

Change the Weather History Date:

Sunday, December 9, 2012

  Actual Average Record
Temperature  
Mean Temperature 26 °F -  
Max Temperature 33 °F 41 °F 55 °F (2010)
Min Temperature 19 °F 30 °F 19 °F (2012)
Degree Days  
Heating Degree Days 39    
Moisture  
Dew Point 21 °F    
Average Humidity 77    
Maximum Humidity 86    
Minimum Humidity 64    
Precipitation  
Precipitation 0.00 in - - ()
Sea Level Pressure  
Sea Level Pressure 30.27 in    
Wind  
Wind Speed 5 mph ()    
Max Wind Speed 10 mph    
Max Gust Speed -    
Visibility 6.2 miles    
Events      
Averages and records for this station are not official NWS values.
T = Trace of Precipitation, MM = Missing Value Source: Averaged Metar Reports

Daily Weather History Graph

Daily Weather History Graph

Search for Another Location

Airport or City:

Trip Planner

Search our weather history database for the weather conditions in past years. The results will help you decide how hot, cold, wet, or windy it might be!

Date:

Astronomy

Dec. 09, 2012 Rise Set
Actual Time 8:06 AM CET 4:55 PM CET
Civil Twilight 7:32 AM CET 5:29 PM CET
Nautical Twilight 6:55 AM CET 6:06 PM CET
Astronomical Twilight 6:19 AM CET 6:42 PM CET
Moon 3:11 AM CET (12/9) 2:00 PM CET (12/9)
Length of Visible Light 9h 56m
Length of Day
8h 49m
Waning Crescent, 21% of the Moon is Illuminated
Dec 9
Waning Crescent
Dec 13
New
Dec 20
First Quarter
Dec 28
Full
Jan 5
Last Quarter

Hourly Weather History & Observations

Time (CET) Temp. Windchill Dew Point Humidity Pressure Visibility Wind Dir Wind Speed Gust Speed Precip Events Conditions
6:00 AM 30.2 °F 25.4 °F 23.0 °F 75% 30.30 in 6.2 mi NNE 4.6 mph - N/A   Overcast
6:30 AM 30.2 °F 26.7 °F 23.0 °F 75% 30.30 in 6.2 mi North 3.5 mph - N/A   Overcast
7:00 AM 30.2 °F 26.7 °F 23.0 °F 75% 30.33 in 6.2 mi NNE 3.5 mph - N/A   Overcast
7:30 AM 30.2 °F 25.4 °F 23.0 °F 75% 30.30 in 6.2 mi East 4.6 mph - N/A   Overcast
8:00 AM 30.2 °F 23.4 °F 23.0 °F 75% 30.30 in 6.2 mi East 6.9 mph - N/A   Overcast
8:30 AM 30.2 °F 26.7 °F 23.0 °F 75% 30.33 in 6.2 mi Variable 3.5 mph - N/A   Mostly Cloudy
9:00 AM 28.4 °F 24.6 °F 23.0 °F 80% 30.33 in 6.2 mi NE 3.5 mph - N/A   Mostly Cloudy
9:30 AM 28.4 °F - 23.0 °F 80% 30.33 in 6.2 mi NE 2.3 mph - N/A   Mostly Cloudy
10:00 AM 30.2 °F - 23.0 °F 75% 30.33 in 6.2 mi ENE 1.2 mph - N/A   Mostly Cloudy
10:30 AM 30.2 °F 26.7 °F 24.8 °F 80% 30.33 in 6.2 mi East 3.5 mph - N/A   Mostly Cloudy
11:00 AM 30.2 °F 24.3 °F 23.0 °F 75% 30.33 in 6.2 mi East 5.8 mph - N/A   Mostly Cloudy
11:30 AM 32.0 °F 25.6 °F 24.8 °F 75% 30.33 in 6.2 mi East 6.9 mph - N/A   Mostly Cloudy
12:00 PM 32.0 °F 26.4 °F 23.0 °F 69% 30.33 in 6.2 mi East 5.8 mph - N/A   Mostly Cloudy
12:30 PM 32.0 °F 27.5 °F 23.0 °F 69% 30.30 in 6.2 mi East 4.6 mph - N/A   Mostly Cloudy
1:00 PM 33.8 °F - 23.0 °F 65% 30.30 in 6.2 mi East 1.2 mph - N/A   Mostly Cloudy
2:00 PM 33.8 °F 29.6 °F 23.0 °F 65% 30.27 in 6.2 mi East 4.6 mph - N/A   Mostly Cloudy
2:30 PM 33.8 °F 28.6 °F 23.0 °F 65% 30.27 in 6.2 mi East 5.8 mph - N/A   Scattered Clouds
3:00 PM 32.0 °F 25.6 °F 23.0 °F 69% 30.27 in 6.2 mi ESE 6.9 mph - N/A   Partly Cloudy
3:30 PM 32.0 °F 24.8 °F 21.2 °F 64% 30.27 in 6.2 mi East 8.1 mph - N/A   Partly Cloudy
4:00 PM 32.0 °F 24.2 °F 23.0 °F 69% 30.24 in 6.2 mi East 9.2 mph - N/A   Partly Cloudy
4:30 PM 30.2 °F 22.6 °F 21.2 °F 69% 30.24 in 6.2 mi East 8.1 mph - N/A   Partly Cloudy
5:00 PM 24.8 °F 17.9 °F 17.6 °F 74% 30.24 in 6.2 mi ENE 5.8 mph - N/A   Partly Cloudy
5:30 PM 24.8 °F 17.9 °F 19.4 °F 80% 30.24 in 6.2 mi NE 5.8 mph - N/A   Scattered Clouds
6:00 PM 23.0 °F 17.0 °F 17.6 °F 80% 30.24 in 6.2 mi East 4.6 mph - N/A   Mostly Cloudy
6:30 PM 21.2 °F 13.6 °F 17.6 °F 86% 30.24 in 6.2 mi ESE 5.8 mph - N/A   Partly Cloudy
7:00 PM 19.4 °F 10.4 °F 15.8 °F 86% 30.24 in 6.2 mi East 6.9 mph - N/A   Partly Cloudy
7:30 PM 19.4 °F 10.4 °F 15.8 °F 86% 30.24 in 6.2 mi ESE 6.9 mph - N/A   Unknown
8:00 PM 23.0 °F 14.7 °F 19.4 °F 86% 30.24 in 6.2 mi East 6.9 mph - N/A   Unknown
8:30 PM 21.2 °F 11.7 °F 17.6 °F 86% 30.24 in 6.2 mi ESE 8.1 mph - N/A   Unknown
9:00 PM 23.0 °F 13.9 °F 19.4 °F 86% 30.21 in 6.2 mi East 8.1 mph - N/A   Unknown
9:30 PM 24.8 °F 14.6 °F 21.2 °F 86% 30.21 in 6.2 mi East 10.4 mph - N/A   Unknown
10:00 PM 23.0 °F 14.7 °F 19.4 °F 86% 30.21 in 6.2 mi East 6.9 mph - N/A   Unknown
10:30 PM 23.0 °F 13.9 °F 19.4 °F 86% 30.18 in 6.2 mi East 8.1 mph - N/A   Unknown
11:00 PM 26.6 °F 17.5 °F 21.2 °F 80% 30.18 in 6.2 mi East 9.2 mph - N/A   Unknown
11:30 PM 26.6 °F 16.8 °F 21.2 °F 80% 30.18 in 6.2 mi ENE 10.4 mph - N/A   Unknown